Total_Precipitation_Accumulation
0.98 1.13 1.02 0.74 0.60 0.48 0.37 0.38 0.37 0.29 0.24 0.36 0.31 0.19 0.12 0.11 0.13 0.15 0.16 0.18 0.25 0.28 0.30 0.38 0.49 0.63 0.74 0.84 0.93 0.97 1.16 1.21 1.34 1.44 1.42 1.38 1.29 1.25 1.22 1.14 1.05 0.97 0.97 0.96
1.14 0.92 0.54 0.43 0.43 0.45 0.48 0.48 0.40 0.30 0.26 0.38 0.35 0.22 0.12 0.10 0.10 0.12 0.15 0.17 0.21 0.26 0.34 0.39 0.45 0.56 0.65 0.71 0.81 0.86 1.05 1.22 1.31 1.38 1.35 1.29 1.27 1.22 1.20 1.13 1.13 1.11 1.05 1.04
0.93 0.58 0.34 0.51 0.61 0.60 0.53 0.44 0.37 0.36 0.36 0.41 0.42 0.31 0.15 0.10 0.09 0.14 0.16 0.18 0.20 0.21 0.27 0.33 0.37 0.49 0.58 0.65 0.70 0.80 0.99 1.16 1.29 1.38 1.49 1.49 1.52 1.49 1.41 1.28 1.16 1.11 1.11 1.07
0.70 0.41 0.40 0.60 0.68 0.63 0.56 0.32 0.31 0.39 0.60 0.65 0.53 0.52 0.21 0.13 0.12 0.15 0.17 0.16 0.17 0.19 0.25 0.30 0.34 0.42 0.52 0.60 0.67 0.76 0.98 1.18 1.26 1.32 1.40 1.47 1.49 1.50 1.41 1.30 1.22 1.13 1.09 1.08
0.84 0.50 0.50 0.59 0.52 0.54 0.49 0.32 0.36 0.49 0.69 0.78 0.55 0.57 0.27 0.15 0.17 0.18 0.18 0.17 0.15 0.16 0.19 0.25 0.31 0.39 0.52 0.63 0.67 0.74 0.89 1.08 1.24 1.32 1.31 1.37 1.41 1.40 1.43 1.46 1.39 1.31 1.23 1.15
0.64 0.44 0.52 0.49 0.38 0.46 0.55 0.61 0.68 0.77 1.12 1.32 0.51 0.45 0.30 0.21 0.23 0.20 0.19 0.18 0.16 0.18 0.20 0.25 0.32 0.38 0.50 0.72 0.75 0.77 0.83 0.97 1.17 1.30 1.29 1.28 1.30 1.33 1.36 1.43 1.44 1.40 1.31 1.21
0.85 0.57 0.48 0.44 0.59 0.74 0.94 1.37 2.04 2.15 2.10 1.19 0.27 0.30 0.33 0.21 0.18 0.18 0.19 0.18 0.16 0.19 0.23 0.25 0.31 0.40 0.46 0.62 0.72 0.78 0.83 0.85 1.01 1.23 1.30 1.23 1.25 1.22 1.18 1.22 1.27 1.28 1.27 1.23
0.91 0.73 0.51 0.49 0.66 0.95 1.05 1.30 1.63 1.50 1.01 0.45 0.20 0.24 0.24 0.16 0.13 0.14 0.16 0.17 0.15 0.16 0.23 0.26 0.27 0.35 0.45 0.53 0.62 0.73 0.83 0.88 0.95 1.06 1.19 1.23 1.28 1.25 1.15 1.11 1.14 1.16 1.14 1.13
0.88 0.60 0.35 0.36 0.41 0.55 0.86 1.00 0.86 1.02 0.70 0.46 0.34 0.21 0.18 0.11 0.12 0.11 0.12 0.15 0.17 0.19 0.24 0.28 0.31 0.35 0.38 0.45 0.52 0.66 0.78 0.92 0.95 0.95 1.09 1.19 1.24 1.24 1.16 1.09 1.07 1.10 1.10 1.12
0.96 0.82 0.41 0.38 0.50 0.57 0.67 0.78 1.02 1.45 1.20 0.64 0.33 0.21 0.23 0.18 0.15 0.11 0.10 0.11 0.14 0.18 0.23 0.28 0.35 0.36 0.34 0.38 0.46 0.57 0.66 0.86 1.02 0.98 0.99 1.13 1.19 1.23 1.21 1.14 1.07 1.01 1.00 1.06
0.95 1.09 0.71 0.60 0.79 0.76 0.69 0.93 1.19 1.31 1.08 0.75 0.44 0.31 0.28 0.19 0.15 0.16 0.14 0.12 0.13 0.16 0.19 0.25 0.35 0.41 0.38 0.37 0.42 0.54 0.61 0.73 0.97 1.06 1.01 1.04 1.14 1.19 1.23 1.21 1.10 1.02 0.98 0.99
0.90 1.23 0.98 0.62 0.53 0.49 0.60 0.76 0.93 1.22 0.99 0.62 0.50 0.33 0.21 0.16 0.14 0.14 0.14 0.14 0.14 0.17 0.20 0.26 0.37 0.43 0.44 0.44 0.44 0.53 0.56 0.62 0.79 1.00 1.08 1.04 1.06 1.17 1.20 1.13 1.07 1.08 1.04 1.01
1.40 1.77 1.53 1.14 0.89 0.76 0.87 0.77 0.75 0.81 0.84 0.66 0.53 0.31 0.17 0.11 0.11 0.12 0.13 0.15 0.17 0.17 0.21 0.27 0.35 0.40 0.45 0.45 0.46 0.54 0.55 0.53 0.59 0.81 0.98 1.08 1.08 1.11 1.17 1.12 1.02 1.04 1.08 1.07
1.91 2.05 1.39 1.15 0.90 0.80 0.79 0.65 0.65 0.89 1.07 0.61 0.31 0.24 0.16 0.13 0.12 0.14 0.15 0.16 0.19 0.19 0.23 0.23 0.25 0.31 0.37 0.36 0.40 0.48 0.51 0.49 0.49 0.63 0.83 0.96 1.03 1.07 1.11 1.13 1.10 1.05 1.04 1.05
1.87 1.83 0.79 0.42 0.34 0.42 0.47 0.43 0.50 0.68 0.64 0.53 0.26 0.20 0.20 0.18 0.19 0.20 0.21 0.20 0.20 0.22 0.23 0.21 0.20 0.24 0.29 0.30 0.34 0.40 0.48 0.50 0.49 0.52 0.64 0.83 0.94 1.03 1.08 1.10 1.11 1.15 1.16 1.07
1.68 1.64 0.82 0.46 0.24 0.33 0.38 0.32 0.35 0.38 0.35 0.32 0.21 0.18 0.15 0.14 0.16 0.18 0.20 0.22 0.22 0.25 0.26 0.21 0.20 0.21 0.24 0.28 0.31 0.35 0.42 0.48 0.50 0.52 0.52 0.66 0.85 0.98 1.05 1.09 1.16 1.18 1.19 1.17
1.55 1.54 1.31 0.82 0.37 0.63 0.72 0.40 0.37 0.37 0.34 0.31 0.33 0.29 0.17 0.13 0.15 0.19 0.21 0.23 0.24 0.25 0.25 0.21 0.20 0.20 0.22 0.24 0.27 0.33 0.38 0.43 0.45 0.42 0.42 0.51 0.67 0.86 0.97 1.03 1.11 1.23 1.23 1.20
1.18 1.35 1.68 1.25 0.97 1.31 0.68 0.31 0.31 0.39 0.44 0.39 0.36 0.30 0.23 0.19 0.18 0.19 0.24 0.27 0.26 0.25 0.24 0.22 0.20 0.20 0.21 0.22 0.23 0.31 0.35 0.36 0.39 0.39 0.37 0.39 0.49 0.66 0.83 0.98 1.06 1.14 1.24 1.25
0.68 1.23 1.90 1.71 1.37 0.84 0.38 0.28 0.40 0.46 0.50 0.43 0.35 0.27 0.23 0.20 0.18 0.20 0.22 0.25 0.27 0.27 0.25 0.22 0.20 0.20 0.20 0.21 0.24 0.27 0.29 0.33 0.34 0.35 0.36 0.34 0.38 0.49 0.65 0.81 0.94 1.02 1.14 1.16
0.70 1.21 2.04 1.86 1.46 0.80 0.43 0.26 0.29 0.39 0.57 0.37 0.31 0.31 0.28 0.27 0.29 0.29 0.27 0.24 0.25 0.23 0.22 0.21 0.20 0.19 0.19 0.21 0.25 0.28 0.28 0.30 0.33 0.34 0.33 0.33 0.36 0.41 0.52 0.65 0.79 0.94 1.06 1.12
1.05 1.61 1.89 1.46 1.23 0.65 0.38 0.27 0.26 0.57 0.65 0.36 0.33 0.35 0.34 0.36 0.36 0.32 0.27 0.24 0.24 0.21 0.20 0.21 0.20 0.19 0.19 0.22 0.26 0.31 0.30 0.30 0.32 0.33 0.33 0.33 0.34 0.36 0.44 0.57 0.70 0.88 1.01 1.12
0.80 1.08 1.06 0.97 1.16 0.73 0.38 0.34 0.54 0.65 0.41 0.35 0.32 0.32 0.34 0.32 0.30 0.28 0.26 0.24 0.23 0.22 0.20 0.22 0.21 0.20 0.19 0.22 0.27 0.32 0.31 0.30 0.32 0.31 0.32 0.32 0.31 0.34 0.40 0.53 0.66 0.82 0.97 1.11
0.58 0.75 0.78 0.71 0.67 0.49 0.43 0.50 0.52 0.45 0.40 0.35 0.34 0.32 0.32 0.32 0.31 0.29 0.25 0.23 0.22 0.22 0.21 0.21 0.23 0.22 0.21 0.22 0.28 0.34 0.32 0.32 0.31 0.32 0.33 0.33 0.33 0.35 0.38 0.47 0.63 0.83 0.94 1.06
0.42 0.40 0.53 0.54 0.42 0.33 0.32 0.33 0.36 0.37 0.36 0.33 0.32 0.33 0.31 0.31 0.31 0.27 0.22 0.22 0.21 0.21 0.21 0.20 0.22 0.24 0.25 0.28 0.32 0.34 0.35 0.34 0.31 0.33 0.34 0.33 0.36 0.41 0.41 0.47 0.58 0.77 0.93 1.04
0.38 0.35 0.41 0.45 0.34 0.28 0.24 0.25 0.27 0.28 0.27 0.25 0.27 0.30 0.31 0.29 0.26 0.23 0.20 0.19 0.20 0.22 0.21 0.20 0.21 0.23 0.29 0.35 0.34 0.32 0.34 0.36 0.34 0.34 0.36 0.36 0.38 0.43 0.46 0.51 0.59 0.70 0.82 1.04
0.30 0.34 0.40 0.43 0.35 0.37 0.31 0.24 0.23 0.23 0.23 0.23 0.23 0.25 0.25 0.24 0.22 0.18 0.18 0.19 0.20 0.20 0.18 0.19 0.20 0.22 0.28 0.33 0.34 0.32 0.33 0.36 0.37 0.37 0.37 0.40 0.44 0.45 0.47 0.55 0.65 0.76 0.82 0.92